Location: Dampvalley
(47.9094°N, 6.1967°E)
Time: 01:57:32
(UTC+00:00)

METEOR M2 - Visible Passes

Search period start: 06 December 2021 00:00
Search period end: 16 December 2021 00:00
Orbit: 818 x 827 km, 98.4° (Epoch: 05 December)

Date Brightness Start Highest point End Pass type
(mag) Time Alt. Az. Time Alt. Az. Time Alt. Az.
06 Dec ? 05:37:13 10° NE 05:40:08 15° E 05:43:00 10° ESE visible
06 Dec ? 17:02:21 10° SE 17:07:07 33° ENE 17:11:54 10° N visible
06 Dec ? 18:42:09 10° SSW 18:47:12 40° W 18:52:16 10° NNW visible
07 Dec ? 16:43:09 10° ESE 16:47:23 24° ENE 16:51:37 10° N visible
07 Dec ? 18:21:53 10° S 18:27:11 59° W 18:32:30 10° NNW visible
08 Dec ? 06:35:55 10° NNE 06:41:04 45° E 06:46:11 10° S visible
08 Dec ? 16:24:14 10° E 16:27:43 18° ENE 16:31:12 10° NNE visible
08 Dec ? 18:01:50 10° SSE 18:07:13 84° WSW 18:12:38 10° NNW visible
08 Dec ? 19:45:49 10° WSW 19:48:12 13° W 19:50:35 10° WNW visible
09 Dec ? 06:16:16 10° NNE 06:21:01 31° E 06:25:44 10° SSE visible
09 Dec ? 17:41:59 10° SSE 17:47:18 69° ENE 17:52:40 10° N visible
09 Dec ? 19:24:14 10° SW 19:28:00 19° W 19:31:46 10° NW visible
10 Dec ? 05:56:47 10° NE 06:00:53 22° E 06:04:57 10° SE visible
10 Dec ? 17:22:20 10° SE 17:27:28 48° ENE 17:32:36 10° N visible
10 Dec ? 19:03:19 10° SSW 19:07:51 27° W 19:12:25 10° NW visible
11 Dec ? 05:37:43 10° NE 05:40:42 15° E 05:43:40 10° ESE visible
11 Dec ? 17:02:53 10° SE 17:07:40 34° ENE 17:12:29 10° N visible
11 Dec ? 18:42:45 10° SSW 18:47:46 39° W 18:52:49 10° NNW visible
12 Dec ? 16:43:40 10° ESE 16:47:56 25° ENE 16:52:13 10° N visible
12 Dec ? 18:22:28 10° S 18:27:45 57° W 18:33:03 10° NNW visible
13 Dec ? 06:36:28 10° NNE 06:41:38 46° E 06:46:46 10° S visible
13 Dec ? 16:24:44 10° E 16:28:15 18° ENE 16:31:47 10° NNE visible
13 Dec ? 18:02:24 10° SSE 18:07:47 83° WSW 18:13:11 10° NNW visible
13 Dec ? 19:46:33 10° WSW 19:48:47 13° W 19:51:02 10° WNW visible
14 Dec ? 06:16:48 10° NNE 06:21:35 32° E 06:26:19 10° SSE visible
14 Dec ? 17:42:32 10° SSE 17:47:52 70° ENE 17:53:14 10° N visible
14 Dec ? 19:24:52 10° SW 19:28:34 19° W 19:32:17 10° NW visible
15 Dec ? 05:57:19 10° NE 06:01:28 22° E 06:05:34 10° SE visible
15 Dec ? 17:22:52 10° SE 17:28:01 49° ENE 17:33:11 10° N visible
15 Dec ? 19:03:55 10° SSW 19:08:25 27° W 19:12:57 10° NW visible
